Weather History for CWMM - November, 2012

Change the Weather History Date:

Monday, November 19, 2012

  Actual Average (CYXX) Record (CYXX)
Temperature  
Mean Temperature 43 °F -  
Max Temperature 45 °F 46 °F 57 °F (2001)
Min Temperature 40 °F 36 °F 21 °F (1996)
Degree Days  
Heating Degree Days 22    
Moisture  
Dew Point 43 °F    
Average Humidity 92    
Maximum Humidity 97    
Minimum Humidity 73    
Precipitation  
Precipitation 0.55 in - - ()
Sea Level Pressure  
Sea Level Pressure 29.49 in    
Wind  
Wind Speed 5 mph ()    
Max Wind Speed 12 mph    
Max Gust Speed 21 mph    
Averages and records for this station are not official NWS values.
T = Trace of Precipitation, MM = Missing Value Source: Averaged Metar Reports

Daily Weather History Graph

Daily Weather History Graph

Search for Another Location

Airport or City:

Trip Planner

Search our weather history database for the weather conditions in past years. The results will help you decide how hot, cold, wet, or windy it might be!

Date:

Astronomy

Nov. 19, 2012 Rise Set
Actual Time 7:28 AM PST 4:24 PM PST
Civil Twilight 6:52 AM PST 4:59 PM PST
Nautical Twilight 6:13 AM PST 5:38 PM PST
Astronomical Twilight 5:35 AM PST 6:16 PM PST
Moon 12:21 PM PST (11/19) 11:12 PM PST (11/19)
Length of Visible Light 10h 06m
Length of Day
8h 55m
Waxing Crescent, 42% of the Moon is Illuminated
Nov 19
Waxing Crescent
Nov 20
First Quarter
Nov 28
Full
Dec 6
Last Quarter
Dec 13
New

Hourly Weather History & Observations

Time (PST) Temp. Windchill Dew Point Humidity Pressure Visibility Wind Dir Wind Speed Gust Speed Precip Events Conditions
12:00 AM 51.1 °F - 45.7 °F 82% 29.52 in - SSE 9.2 mph 20.7 mph N/A   Unknown
1:00 AM 50.9 °F - 42.6 °F 73% 29.51 in - SE 10.4 mph - N/A   Unknown
2:00 AM 50.9 °F - 42.6 °F 73% 29.52 in - SSE 10.4 mph 19.6 mph N/A   Unknown
3:00 AM 47.8 °F - 45.1 °F 90% 29.53 in - SE 8.1 mph - 0.01 in   Unknown
4:00 AM 46 °F - 44 °F 89% 29.52 in - East 3.5 mph - -  
4:00 AM 45.9 °F 44.6 °F 43.7 °F 92% 29.52 in - East 3.5 mph - N/A   Unknown
5:00 AM 45.1 °F - 43.7 °F 95% 29.52 in - East 2.3 mph - 0.02 in   Unknown
6:00 AM 45.3 °F 44.0 °F 44.1 °F 95% 29.50 in - East 3.5 mph - 0.02 in   Unknown
7:00 AM 45.3 °F 44.0 °F 44.2 °F 96% 29.47 in - East 3.5 mph - 0.07 in   Unknown
8:00 AM 45.1 °F 40.8 °F 43.7 °F 95% 29.49 in - East 8.1 mph - 0.02 in   Unknown
9:00 AM 45.3 °F 41.6 °F 43.5 °F 93% 29.48 in - East 6.9 mph - 0.04 in   Unknown
10:00 AM 45 °F - 44 °F 93% 29.48 in - East 3.5 mph - -  
10:00 AM 45.3 °F 44.0 °F 43.7 °F 94% 29.48 in - East 3.5 mph - 0.07 in   Unknown
11:00 AM 44.8 °F 39.0 °F 43.5 °F 95% 29.42 in - NNE 11.5 mph - 0.11 in   Unknown
12:00 PM 44.4 °F 40.0 °F 42.8 °F 94% 29.40 in - NNE 8.1 mph - 0.15 in   Unknown
1:00 PM 44.4 °F - 42.8 °F 94% 29.39 in - NE 2.3 mph - 0.10 in   Unknown
2:00 PM 44.4 °F - 42.6 °F 93% 29.36 in - NE 2.3 mph - 0.12 in   Unknown
3:00 PM 43.9 °F 42.3 °F 42.4 °F 95% 29.38 in - SSW 3.5 mph - N/A   Unknown
4:00 PM 44 °F - 42 °F 92% 29.40 in - NNW 2.3 mph - -  
4:00 PM 43.7 °F - 42.4 °F 95% 29.40 in - NNW 2.3 mph - 0.06 in   Unknown
8:00 PM 43.2 °F - 42.1 °F 96% 29.53 in - SE 2.3 mph - N/A   Unknown
9:00 PM 41.9 °F - 40.8 °F 96% 29.58 in - ESE 1.2 mph - N/A   Unknown
10:00 PM 41 °F - 40 °F 96% 29.63 in - SE 1.2 mph - -  
10:00 PM 41.4 °F - 40.3 °F 96% 29.63 in - SE 1.2 mph - N/A   Unknown
11:00 PM 40.8 °F - 39.9 °F 97% 29.65 in - West 2.3 mph - N/A   Unknown